Regional Weather Roundup
Issued by NWS

Home | Current Version | Previous Version | Graphics & Text | Print | Product List | Glossary On
Versions: 1 2 3 4 5 6 7 8 9 10 11 12 13 14 15 16 17 18 19 20 21 22 23 24 25 26 27 28 29 30 31 32 33 34 35 36 37 38 39 40 41 42 43 44 45 46 47 48 49 50
000
ASUS43 KFSD 301710
RWRSD

WEATHER ROUNDUP FOR SOUTH DAKOTA
NATIONAL WEATHER SERVICE SIOUX FALLS SD
1200 PM CDT THU OCT 30 2014

NOTE: "FAIR" INDICATES FEW OR NO CLOUDS BELOW 12,000 FEET WITH NO
SIGNIFICANT WEATHER AND/OR OBSTRUCTIONS TO VISIBILITY.


SDZ001>005-009-010-012>017-301800-
NORTHWEST AND NORTH CENTRAL SOUTH DAKOTA

CITY           SKY/WX    TMP DP  RH WIND       PRES   REMARKS
BUFFALO          N/A     36  32  85 N8        30.29R
FAITH            N/A     39  33  79 N16       30.33R
MOBRIDGE       MOSUNNY   42  33  70 N16       30.30R
$$

SDZ012>016-024>037-041>051-057-063-072>074-301800-
SOUTHWEST AND SOUTH CENTRAL SOUTH DAKOTA

CITY           SKY/WX    TMP DP  RH WIND       PRES   REMARKS
RAPID CTY ARPT SUNNY     51  34  52 N16G23    30.31R
PIERRE         MOSUNNY   45  34  65 N20       30.27R
CUSTER         SUNNY     52  27  38 N8G17     30.32R
ELLSWORTH AFB  SUNNY     51  35  54 NE14      30.32R
PHILIP         SUNNY     48  34  58 N14       30.32R
PINE RIDGE     SUNNY     54  33  45 NW8       30.31R
SPEARFISH      FAIR      50  34  53 NW12      30.34R
WINNER         FAIR      51  35  54 NW25G32   30.24R
$$

SDZ004>011-016>023-039-040-301800-
NORTHEAST SOUTH DAKOTA

CITY           SKY/WX    TMP DP  RH WIND       PRES   REMARKS
ABERDEEN       CLOUDY    41  33  73 N21G29    30.26R
WATERTOWN      CLOUDY    42  40  92 N18G25    30.15R FOG
SISSETON         N/A     40  40 100 N16G24    30.19R
$$

SDZ017-020-022-023-036>040-048>070-301800-
SOUTHEAST SOUTH DAKOTA

CITY           SKY/WX    TMP DP  RH WIND       PRES   REMARKS
SIOUX FALLS    MOSUNNY   53  39  59 N16       30.10R
HURON          CLOUDY    42  37  82 N21G28    30.21R
CHAMBERLAIN    SUNNY     48  36  62 NW22      30.24R
MITCHELL       MOSUNNY   49  38  65 N20G28    30.19R
YANKTON        SUNNY     52  41  66 NW22      30.14R
$$

ABBREVIATIONS USED IN REMARKS
   TC - TEMPERATURE IN CELSIUS
  WCI - WIND CHILL INDEX
   HX - HEAT INDEX
  VSB - VISIBILITY




USA.gov is the U.S. government's official web portal to all federal, state and local government web resources and services.